カタログに戻る

FREGAT R/B

運用中HEO
NORAD 37373·ROCKET BODY·🇷🇺 Russia

打ち上げ Feb 26, 2011 から Plesetsk Cosmodrome

Loading…

次のパス (今後24時間)

TLE

最新Source: Space-Track

元期: Sep 14, 2026, 02:01 UTC

1 37373U 11009B   26257.08464167 -.00000066  00000-0  00000-0 0  9995
2 37373  65.6491 320.6972 0068570  86.6313 306.7805  2.08582566118425

AllMySatでFREGAT R/Bをリアルタイム追跡

Download on the App Store